GW2298 Weather Reports


Display with metric or nautical units.
time (UTC)temp
F
wind
direction
speed
MPH
gust
MPH
rain 1hr
in
rain 24hr
in
rain mn
in
humidity
%
barometer
mb
20260503020507 68 224 3.0 3.0 0.00 0.00 0.00 32 4459.5
20260503020003 68 260 1.0 2.0 0.00 0.00 0.00 33 4459.9
20260503015500 68 293 3.0 3.0 0.00 0.00 0.00 32 4459.5
20260503014956 69 267 0.0 2.0 0.00 0.00 0.00 33 4459.9
20260503014453 69 267 0.0 0.0 0.00 0.00 0.00 32 4459.9
20260503013951 70 309 2.0 3.0 0.00 0.00 0.00 31 4459.9
20260503013448 70 298 4.0 5.0 0.00 0.00 0.00 32 4459.5
20260503012945 71 184 2.0 3.0 0.00 0.00 0.00 31 4459.5
20260503012443 71 212 1.0 2.0 0.00 0.00 0.00 34 4459.5
20260503011938 70 230 0.0 2.0 0.00 0.00 0.00 32 4459.9
20260503011436 69 240 3.0 3.0 0.00 0.00 0.00 33 4459.9
20260503010933 70 256 3.0 3.0 0.00 0.00 0.00 33 4459.9
20260503010429 70 168 2.0 3.0 0.00 0.00 0.00 33 4459.5
20260503005927 71 101 5.0 7.0 0.00 0.00 0.00 31 4459.9
20260503005424 71 135 3.0 5.0 0.00 0.00 0.00 30 4459.9
20260503004921 72 243 1.0 2.0 0.00 0.00 0.00 33 4459.5
20260503004417 71 238 0.0 2.0 0.00 0.00 0.00 32 4459.5
20260503003915 71 227 0.0 0.0 0.00 0.00 0.00 34 4459.5
20260503003412 71 185 1.0 2.0 0.00 0.00 0.00 31 4459.9
20260503002909 72 228 2.0 2.0 0.00 0.00 0.00 31 4459.5
20260503002406 73 258 4.0 5.0 0.00 0.00 0.00 29 4459.9
20260503001902 73 238 3.0 3.0 0.00 0.00 0.00 28 4459.9
20260503001359 73 219 1.0 2.0 0.00 0.00 0.00 30 4459.9
20260503000857 74 230 3.0 3.0 0.00 0.00 0.00 27 4459.9
20260503000354 74 225 4.0 5.0 0.00 0.00 0.00 25 4459.9
20260502235850 74 210 2.0 3.0 0.00 0.00 0.00 25 4459.9
20260502235348 75 211 14.0 15.0 0.00 0.00 0.00 30 4459.5
20260502234845 75 284 0.0 2.0 0.00 0.00 0.00 26 4459.9
20260502234341 75 143 2.0 2.0 0.00 0.00 0.00 29 4459.9
20260502233838 75 239 1.0 2.0 0.00 0.00 0.00 25 4459.9
20260502233334 75 324 7.0 10.0 0.00 0.00 0.00 26 4459.9
20260502232831 75 191 2.0 3.0 0.00 0.00 0.00 29 4459.9
20260502232328 75 160 2.0 2.0 0.00 0.00 0.00 28 4460.2
20260502231824 75 198 3.0 3.0 0.00 0.00 0.00 26 4460.2
20260502231322 75 168 6.0 9.0 0.00 0.00 0.00 29 4460.2
20260502230820 75 231 3.0 3.0 0.00 0.00 0.00 27 4460.2
20260502230318 75 283 3.0 3.0 0.00 0.00 0.00 27 4460.2
20260502225814 75 56 3.0 3.0 0.00 0.00 0.00 28 4460.5
20260502225311 75 204 3.0 3.0 0.00 0.00 0.00 28 4460.5
20260502224808 76 188 3.0 5.0 0.00 0.00 0.00 28 4460.5
20260502224304 76 185 1.0 2.0 0.00 0.00 0.00 31 4460.5
20260502223802 76 212 3.0 3.0 0.00 0.00 0.00 27 4461.0
20260502223300 76 224 5.0 5.0 0.00 0.00 0.00 24 4461.0
20260502222757 76 198 1.0 2.0 0.00 0.00 0.00 29 4461.0
20260502222254 74 321 0.0 2.0 0.00 0.00 0.00 26 4461.3
20260502221750 74 333 5.0 7.0 0.00 0.00 0.00 24 4461.0
20260502221246 73 4 2.0 3.0 0.00 0.00 0.00 28 4461.3
20260502220743 74 4 5.0 5.0 0.00 0.00 0.00 25 4461.3
20260502220239 74 6 6.0 9.0 0.00 0.00 0.00 28 4461.3
20260502215736 75 284 0.0 0.0 0.00 0.00 0.00 24 4461.7
20260502215233 74 280 2.0 2.0 0.00 0.00 0.00 29 4461.3
20260502214731 73 309 2.0 2.0 0.00 0.00 0.00 23 4461.7
20260502214227 73 316 3.0 3.0 0.00 0.00 0.00 23 4461.7
20260502213725 72 173 2.0 2.0 0.00 0.00 0.00 25 4461.7
20260502213222 73 188 5.0 5.0 0.00 0.00 0.00 24 4461.7
20260502212721 74 199 2.0 3.0 0.00 0.00 0.00 24 4461.7
20260502212218 74 193 0.0 0.0 0.00 0.00 0.00 24 4461.7
20260502211714 73 235 3.0 3.0 0.00 0.00 0.00 24 4461.7
20260502211211 73 204 3.0 3.0 0.00 0.00 0.00 24 4462.0
20260502210708 73 45 2.0 3.0 0.00 0.00 0.00 24 4461.7
20260502210205 72 44 3.0 3.0 0.00 0.00 0.00 24 4462.0
20260502205703 72 62 1.0 2.0 0.00 0.00 0.00 30 4462.0
20260502205159 72 0 0.0 0.0 0.00 0.00 0.00 24 4462.0
20260502204655 72 0 2.0 2.0 0.00 0.00 0.00 25 4462.4
20260502204154 72 0 2.0 3.0 0.00 0.00 0.00 26 4462.0
20260502203650 72 358 0.0 2.0 0.00 0.00 0.00 27 4462.4
20260502203149 71 52 0.0 2.0 0.00 0.00 0.00 28 4462.4
20260502202643 71 38 2.0 3.0 0.00 0.00 0.00 27 4462.4
20260502202141 70 39 0.0 0.0 0.00 0.00 0.00 28 4462.4
20260502201638 69 342 2.0 3.0 0.00 0.00 0.00 30 4462.4
20260502201134 69 0 2.0 2.0 0.00 0.00 0.00 28 4462.8
20260502200630 69 0 2.0 2.0 0.00 0.00 0.00 31 4462.8
20260502200127 69 339 3.0 3.0 0.00 0.00 0.00 31 4462.4
20260502195626 68 324 0.0 2.0 0.00 0.00 0.00 33 4462.8
20260502195121 68 15 2.0 2.0 0.00 0.00 0.00 30 4462.8
20260502194618 68 22 1.0 2.0 0.00 0.00 0.00 34 4463.1
20260502194114 67 335 0.0 2.0 0.00 0.00 0.00 35 4463.1
20260502193611 67 338 3.0 5.0 0.00 0.00 0.00 37 4463.1
20260502193108 66 46 1.0 2.0 0.00 0.00 0.00 40 4463.1
20260502192604 66 46 2.0 2.0 0.00 0.00 0.00 32 4463.4
20260502192102 65 47 2.0 2.0 0.00 0.00 0.00 36 4463.4
20260502191558 65 51 2.0 2.0 0.00 0.00 0.00 35 4463.4
20260502191056 64 29 0.0 0.0 0.00 0.00 0.00 37 4463.4
20260502190553 64 59 0.0 0.0 0.00 0.00 0.00 39 4463.9
20260502190050 64 258 0.0 2.0 0.00 0.00 0.00 36 4463.9
20260502185544 63 352 1.0 2.0 0.00 0.00 0.00 38 4463.9
20260502185042 63 352 3.0 3.0 0.00 0.00 0.00 39 4463.9
20260502184538 63 49 3.0 3.0 0.00 0.00 0.00 37 4463.9
20260502184034 62 47 0.0 0.0 0.00 0.00 0.00 40 4463.9
20260502183530 63 1 0.0 2.0 0.00 0.00 0.00 41 4464.2
20260502183026 63 240 2.0 2.0 0.00 0.00 0.00 36 4464.2
20260502182521 61 16 0.0 0.0 0.00 0.00 0.00 37 4464.2
20260502182018 61 35 3.0 3.0 0.00 0.00 0.00 37 4464.2
20260502181516 61 89 1.0 2.0 0.00 0.00 0.00 38 4464.6
20260502181015 60 59 0.0 0.0 0.00 0.00 0.00 38 4464.6
20260502180511 60 322 2.0 3.0 0.00 0.00 0.00 38 4464.6
20260502170430 55 49 0.0 0.0 0.00 0.00 0.00 50 4465.3
20260502163913 54 353 2.0 2.0 0.00 0.00 0.00 50 4465.3
20260502163409 55 353 3.0 3.0 0.00 0.00 0.00 47 4465.3
20260502162908 55 339 0.0 0.0 0.00 0.00 0.00 51 4465.7
20260502162404 54 341 1.0 2.0 0.00 0.00 0.00 52 4465.7
20260502161901 53 342 3.0 3.0 0.00 0.00 0.00 55 4465.7
20260502161357 54 338 3.0 5.0 0.00 0.00 0.00 53 4465.7
20260502160855 53 315 2.0 2.0 0.00 0.00 0.00 54 4465.7
20260502160353 53 337 2.0 3.0 0.00 0.00 0.00 54 4465.7
20260502152328 50 266 2.0 2.0 0.00 0.00 0.00 62 4466.0
20260502151826 49 265 0.0 0.0 0.00 0.00 0.00 62 4466.0
20260502151322 48 266 0.0 2.0 0.00 0.00 0.00 64 4466.0
20260502150820 46 265 0.0 0.0 0.00 0.00 0.00 69 4466.0
20260502150316 46 265 2.0 2.0 0.00 0.00 0.00 71 4466.0
20260502130705 36 263 0.0 0.0 0.00 0.00 0.00 87 4465.7
20260502130202 35 263 0.0 0.0 0.00 0.00 0.00 88 4466.0
20260502123648 35 263 0.0 0.0 0.00 0.00 0.00 88 4465.7
20260502123145 35 263 0.0 0.0 0.00 0.00 0.00 89 4465.7
20260502122641 35 263 0.0 0.0 0.00 0.00 0.00 90 4465.7
20260502122138 35 264 0.0 0.0 0.00 0.00 0.00 90 4465.7
20260502121636 35 263 0.0 0.0 0.00 0.00 0.00 90 4465.7
20260502121133 35 264 0.0 0.0 0.00 0.00 0.00 90 4465.7
20260502120629 36 264 0.0 0.0 0.00 0.00 0.00 89 4465.7
20260502120127 36 264 0.0 0.0 0.00 0.00 0.00 88 4465.7
20260502115624 36 263 0.0 0.0 0.00 0.00 0.00 88 4465.7
20260502115120 35 263 0.0 0.0 0.00 0.00 0.00 88 4465.3
20260502114616 35 263 0.0 0.0 0.00 0.00 0.00 88 4465.7
20260502114114 35 263 0.0 0.0 0.00 0.00 0.00 88 4465.7
20260502113611 35 263 0.0 0.0 0.00 0.00 0.00 88 4465.7
20260502113110 35 263 0.0 0.0 0.00 0.00 0.00 89 4465.7
20260502112607 36 263 0.0 0.0 0.00 0.00 0.00 91 4465.7
20260502112104 36 263 0.0 0.0 0.00 0.00 0.00 90 4465.7
20260502111602 36 263 0.0 0.0 0.00 0.00 0.00 89 4465.3
20260502111059 37 263 0.0 0.0 0.00 0.00 0.00 89 4465.7
20260502110556 37 264 0.0 0.0 0.00 0.00 0.00 88 4465.7
20260502110054 37 264 0.0 0.0 0.00 0.00 0.00 87 4465.3
20260502105551 37 263 0.0 0.0 0.00 0.00 0.00 86 4465.7
20260502105048 37 263 0.0 0.0 0.00 0.00 0.00 83 4465.7
20260502104545 37 263 0.0 0.0 0.00 0.00 0.00 83 4465.3
20260502104043 37 263 0.0 0.0 0.00 0.00 0.00 84 4465.3
20260502103540 37 264 0.0 0.0 0.00 0.00 0.00 84 4465.3
20260502103038 38 263 0.0 0.0 0.00 0.00 0.00 83 4464.9
20260502102534 39 264 0.0 0.0 0.00 0.00 0.00 81 4465.3
20260502102032 39 263 0.0 0.0 0.00 0.00 0.00 83 4464.9
20260502101529 38 263 0.0 0.0 0.00 0.00 0.00 83 4465.3
20260502101028 38 263 2.0 2.0 0.00 0.00 0.00 83 4465.3
20260502100526 38 263 1.0 2.0 0.00 0.00 0.00 82 4464.9
20260502091500 40 263 0.0 0.0 0.00 0.00 0.00 81 4464.9
20260502090958 41 264 0.0 0.0 0.00 0.00 0.00 80 4464.6
20260502090454 40 263 0.0 0.0 0.00 0.00 0.00 79 4464.6
20260502071349 43 264 0.0 0.0 0.00 0.00 0.00 75 4464.2
20260502070847 44 264 0.0 0.0 0.00 0.00 0.00 76 4464.2
20260502070344 43 269 3.0 3.0 0.00 0.00 0.00 77 4464.2
20260502065843 44 270 0.0 2.0 0.00 0.00 0.00 75 4464.2
20260502065341 44 270 0.0 0.0 0.00 0.00 0.00 74 4464.2
20260502064838 43 270 1.0 2.0 0.00 0.00 0.00 73 4464.2
20260502064336 43 270 0.0 0.0 0.00 0.00 0.00 74 4463.9
20260502063833 43 270 1.0 2.0 0.00 0.00 0.00 74 4463.9
20260502063331 44 270 1.0 2.0 0.00 0.00 0.00 74 4463.9
20260502062828 44 270 0.0 0.0 0.00 0.00 0.00 75 4463.9
20260502062326 44 270 0.0 0.0 0.00 0.00 0.00 74 4463.9
20260502061824 45 271 2.0 3.0 0.00 0.00 0.00 72 4463.9
20260502061322 46 271 0.0 0.0 0.00 0.00 0.00 72 4463.9
20260502060817 46 271 2.0 2.0 0.00 0.00 0.00 71 4463.9
20260502060312 47 272 2.0 2.0 0.00 0.00 0.00 71 4463.9
20260502055811 47 271 1.0 2.0 0.00 0.00 0.00 70 4463.4
20260502055308 47 271 1.0 2.0 0.00 0.00 0.00 71 4463.4
20260502054808 47 272 1.0 2.0 0.00 0.00 0.00 72 4463.4
20260502054305 46 272 0.0 2.0 0.00 0.00 0.00 73 4463.9
20260502053802 47 272 0.0 2.0 0.00 0.00 0.00 75 4463.4
20260502053259 47 306 0.0 0.0 0.00 0.00 0.00 78 4463.4
20260502052757 47 306 2.0 2.0 0.00 0.00 0.00 77 4463.4
20260502052255 48 245 0.0 2.0 0.00 0.00 0.00 73 4463.1
20260502051752 49 245 0.0 0.0 0.00 0.00 0.00 65 4463.4
20260502051251 48 245 0.0 0.0 0.00 0.00 0.00 65 4463.4
20260502050746 49 245 0.0 0.0 0.00 0.00 0.00 67 4463.1
20260502050243 49 245 2.0 2.0 0.00 0.00 0.00 65 4463.1
20260502045740 49 245 0.0 0.0 0.00 0.00 0.00 64 4463.1
20260502045237 48 245 0.0 0.0 0.00 0.00 0.00 66 4463.1
20260502044734 49 245 0.0 0.0 0.00 0.00 0.00 65 4463.1
20260502044230 50 245 1.0 2.0 0.00 0.00 0.00 65 4463.1
20260502043727 50 245 2.0 2.0 0.00 0.00 0.00 65 4462.8
20260502043225 51 245 0.0 0.0 0.00 0.00 0.00 65 4463.1
20260502042724 51 245 0.0 0.0 0.00 0.00 0.00 64 4463.1
20260502042222 50 245 1.0 2.0 0.00 0.00 0.00 66 4463.1
20260502041719 51 245 0.0 0.0 0.00 0.00 0.00 65 4462.8
20260502041216 52 245 0.0 0.0 0.00 0.00 0.00 64 4462.8
20260502040713 53 245 0.0 0.0 0.00 0.00 0.00 67 4462.8
20260502040210 53 154 2.0 2.0 0.00 0.00 0.00 65 4462.8
20260502035706 53 153 0.0 0.0 0.00 0.00 0.00 67 4462.4
20260502035203 53 153 0.0 0.0 0.00 0.00 0.00 65 4462.8
20260502034701 53 153 0.0 0.0 0.00 0.00 0.00 64 4462.4
20260502034159 53 153 1.0 2.0 0.00 0.00 0.00 59 4462.8
20260502033656 53 153 2.0 2.0 0.00 0.00 0.00 57 4462.4
20260502033154 54 153 0.0 0.0 0.00 0.00 0.00 58 4462.4
20260502032650 55 152 0.0 0.0 0.00 0.00 0.00 57 4462.4
20260502032146 55 152 0.0 0.0 0.00 0.00 0.00 56 4462.4
20260502031644 57 152 0.0 0.0 0.00 0.00 0.00 56 4462.4
20260502031142 58 152 0.0 2.0 0.00 0.00 0.00 53 4462.4
20260502030641 58 151 2.0 2.0 0.00 0.00 0.00 49 4462.0
20260502030138 60 149 0.0 0.0 0.00 0.00 0.00 53 4462.0
20260502025635 61 214 0.0 0.0 0.00 0.00 0.00 42 4462.0
20260502025133 60 214 3.0 3.0 0.00 0.00 0.00 41 4462.0
20260502024631 59 210 4.0 5.0 0.00 0.00 0.00 45 4461.7
20260502024129 59 245 2.0 2.0 0.00 0.00 0.00 50 4461.7
20260502023627 59 245 0.0 0.0 0.00 0.00 0.00 51 4461.7
20260502023123 60 246 0.0 0.0 0.00 0.00 0.00 50 4461.7
20260502022620 61 247 2.0 2.0 0.00 0.00 0.00 49 4461.3
20260502022118 62 236 2.0 2.0 0.00 0.00 0.00 45 4461.7
20260502021615 62 259 0.0 0.0 0.00 0.00 0.00 47 4461.7
20260502021112 64 258 1.0 2.0 0.00 0.00 0.00 46 4461.7